Location: Cary
(35.7910°N, 78.7810°W)
Time: 12:00:03
(UTC-05:00)

N. Korean satellite - Pass Details

Date: 07 December 2021
Orbit: 447 x 491 km, 97.3° (Epoch: 25 January)

Event Time Altitude Azimuth Distance (km) Brightness Sun altitude
Rises 04:44:49 0° 28° (NNE) 2,452 10.4 -29.1°
Reaches altitude 10° 04:47:12 10° 45° (NE) 1,576 9.6 -28.7°
Maximum altitude 04:49:48 21° 96° (E) 1,075 9.0 -28.1°
Drops below altitude 10° 04:52:24 10° 146° (SSE) 1,571 9.6 -27.6°
Sets 04:54:46 0° 164° (SSE) 2,442 10.5 -27.1°
